Date String (YYYY-MM-DD hh:mm:ss) UTC,Instrument flags,absolute air pressure of the measurement (hPa),sample flow rate (lpm),inlet stack bypass flow (lpm),air temperature of the measurement (°C),ambient temperature measured by the external sensor (°C),aerosol sample conditioner tube jacket temperature (°C),OPC LED temperature (°C),internal box temperature (°C),relative humidity of the measurement (%),span deviation,mass concentration of particles derived from Lorenz-Mie calculation of OPC scattering (μg/m³),mass concentration of particles derived from Lorenz-Mie calculation of OPC scattering (μg/m³),mass concentration of particles derived from Lorenz-Mie calculation of OPC scattering (μg/m³)
DateTimeUTC,F1_M11,P_M11,Q1_M11,Q2_M11,T1_M11,T2_M11,T3_M11,T4_M11,T5_M11,U1_M11,ZSPAN_M11,X2_M11,X0_M11,X1_M11
2023-05-31 21:00:00,SystemResetWarning,0826.2,5.00,000.00,029.1,027.7,000.0,037.4,030.8,23.9,0000.0,0005.12,0015.52,0003.73
2023-05-31 21:01:00,SystemResetWarning,0826.2,5.00,000.00,029.1,027.7,000.0,037.4,030.8,23.6,0000.0,0005.19,0016.62,0003.79
2023-05-31 21:02:00,SystemResetWarning,0826.2,5.00,000.00,029.1,027.8,000.0,037.4,030.9,23.9,0000.0,0005.22,0017.46,0003.81
2023-05-31 21:03:00,SystemResetWarning,0826.4,5.00,000.00,029.2,027.9,000.0,037.4,030.9,24.0,0000.0,0005.29,0017.31,0003.82
2023-05-31 21:04:00,SystemResetWarning,0826.2,5.00,000.00,029.2,027.9,000.0,037.5,030.9,22.9,0000.0,0005.32,0018.32,0003.82
2023-05-31 21:05:00,SystemResetWarning,0826.3,5.01,000.00,029.2,028.0,000.0,037.5,030.9,18.5,0000.0,0005.33,0018.93,0003.79
2023-05-31 21:06:00,SystemResetWarning,0826.4,5.00,000.00,029.2,027.9,000.0,037.5,030.9,17.0,0000.0,0005.26,0019.64,0003.71
2023-05-31 21:07:00,SystemResetWarning,0826.4,5.00,000.00,029.2,027.9,000.0,037.5,030.9,17.0,0000.0,0005.18,0020.84,0003.64
2023-05-31 21:08:00,SystemResetWarning,0826.5,5.00,000.00,029.2,027.9,000.0,037.5,030.8,16.9,0000.0,0005.05,0022.34,0003.57
2023-05-31 21:09:00,SystemResetWarning,0826.7,5.00,000.00,029.2,027.8,000.0,037.5,030.8,17.3,0000.0,0004.96,0021.90,0003.49
2023-05-31 21:10:00,SystemResetWarning,0826.7,4.99,000.00,029.2,027.8,000.0,037.5,030.8,17.3,0000.0,0004.94,0020.94,0003.41
2023-05-31 21:11:00,SystemResetWarning,0826.8,5.00,000.00,029.2,027.8,000.0,037.5,030.8,17.0,0000.0,0004.87,0021.02,0003.32
2023-05-31 21:12:00,SystemResetWarning,0826.9,4.99,000.00,029.2,027.8,000.0,037.5,030.8,17.1,0000.0,0004.78,0021.01,0003.23
2023-05-31 21:13:00,SystemResetWarning,0826.9,5.00,000.00,029.2,027.8,000.0,037.5,030.8,17.4,0000.0,0004.67,0021.20,0003.14
2023-05-31 21:14:00,SystemResetWarning,0827.0,5.00,000.00,029.2,027.8,000.0,037.5,030.8,17.5,0000.0,0004.54,0020.80,0003.01
2023-05-31 21:15:00,SystemResetWarning,0827.0,5.00,000.00,029.2,027.3,000.0,037.5,030.8,17.8,0000.0,0004.42,0019.78,0002.88
2023-05-31 21:16:00,SystemResetWarning,0827.0,5.00,000.00,029.1,025.6,000.0,037.4,030.5,18.4,0000.0,0004.28,0018.99,0002.78
2023-05-31 21:17:00,SystemResetWarning,0827.0,5.00,000.00,029.1,025.2,000.0,037.4,030.5,18.5,0000.0,0004.20,0017.49,0002.75
2023-05-31 21:18:00,SystemResetWarning,0827.0,5.01,000.00,029.0,025.4,000.0,037.3,030.4,18.9,0000.0,0004.14,0015.84,0002.72
2023-05-31 21:19:00,SystemResetWarning,0827.0,5.00,000.00,029.0,025.6,000.0,037.3,030.4,19.1,0000.0,0004.04,0013.78,0002.67
2023-05-31 21:20:00,SystemResetWarning,0827.1,5.00,000.00,028.9,025.9,000.0,037.3,030.4,19.8,0000.0,0003.93,0013.61,0002.63
2023-05-31 21:21:00,SystemResetWarning,0827.1,5.00,000.00,028.9,026.2,000.0,037.3,030.4,20.0,0000.0,0003.80,0013.72,0002.59
2023-05-31 21:22:00,SystemResetWarning,0827.2,5.00,000.00,028.9,026.4,000.0,037.3,030.5,20.2,0000.0,0003.73,0013.26,0002.55
2023-05-31 21:23:00,SystemResetWarning,0827.2,5.00,000.00,028.9,026.6,000.0,037.3,030.5,20.6,0000.0,0003.66,0012.00,0002.52
2023-05-31 21:24:00,SystemResetWarning,0827.2,4.99,000.00,028.9,026.8,000.0,037.3,030.5,21.0,0000.0,0003.62,0010.32,0002.50
2023-05-31 21:25:00,SystemResetWarning,0827.2,5.00,000.00,028.9,027.0,000.0,037.3,030.5,21.1,0000.0,0003.56,0010.38,0002.48
2023-05-31 21:26:00,SystemResetWarning,0827.3,5.00,000.00,028.9,027.1,000.0,037.3,030.5,20.4,0000.0,0003.51,0010.85,0002.46
2023-05-31 21:27:00,SystemResetWarning,0827.4,5.00,000.00,028.9,027.1,000.0,037.3,030.5,21.0,0000.0,0003.48,0011.04,0002.44
2023-05-31 21:28:00,SystemResetWarning,0827.4,5.00,000.00,028.9,027.2,000.0,037.3,030.5,21.5,0000.0,0003.47,0010.91,0002.41
2023-05-31 21:29:00,SystemResetWarning,0827.4,5.01,000.00,028.9,027.2,000.0,037.3,030.5,22.0,0000.0,0003.43,0010.32,0002.38
2023-05-31 21:30:00,SystemResetWarning,0827.4,5.00,000.00,028.9,027.2,000.0,037.3,030.5,22.2,0000.0,0003.42,0010.19,0002.38
2023-05-31 21:31:00,SystemResetWarning,0827.3,4.99,000.00,028.8,027.3,000.0,037.3,030.5,22.0,0000.0,0003.42,0009.26,0002.37
2023-05-31 21:32:00,SystemResetWarning,0827.4,5.00,000.00,028.8,027.3,000.0,037.3,030.5,21.8,0000.0,0003.42,0008.42,0002.38
2023-05-31 21:33:00,SystemResetWarning,0827.4,5.01,000.00,028.8,027.3,000.0,037.3,030.5,22.4,0000.0,0003.35,0008.22,0002.37
2023-05-31 21:34:00,SystemResetWarning,0827.4,5.00,000.00,028.8,027.3,000.0,037.3,030.5,22.7,0000.0,0003.31,0008.16,0002.36
2023-05-31 21:35:00,SystemResetWarning,0827.4,4.99,000.00,028.8,027.3,000.0,037.3,030.5,22.7,0000.0,0003.24,0008.04,0002.33
2023-05-31 21:36:00,SystemResetWarning,0827.3,5.00,000.00,028.8,027.3,000.0,037.3,030.5,22.8,0000.0,0003.24,0007.59,0002.31
2023-05-31 21:37:00,SystemResetWarning,0827.3,4.99,000.00,028.8,027.3,000.0,037.3,030.5,22.1,0000.0,0003.23,0006.55,0002.29
2023-05-31 21:38:00,SystemResetWarning,0827.3,5.01,000.00,028.8,027.3,000.0,037.3,030.4,22.5,0000.0,0003.22,0005.41,0002.28
2023-05-31 21:39:00,SystemResetWarning,0827.4,5.00,000.00,028.8,027.3,000.0,037.3,030.5,23.2,0000.0,0003.19,0005.27,0002.27
2023-05-31 21:40:00,SystemResetWarning,0827.4,5.01,000.00,028.8,027.3,000.0,037.3,030.5,23.0,0000.0,0003.17,0005.28,0002.25
2023-05-31 21:41:00,SystemResetWarning,0827.4,5.01,000.00,028.8,027.3,000.0,037.3,030.5,23.0,0000.0,0003.22,0005.52,0002.25
2023-05-31 21:42:00,SystemResetWarning,0827.9,4.99,000.00,028.8,027.4,000.0,037.3,030.5,22.1,0000.0,0003.24,0005.73,0002.25
2023-05-31 21:43:00,SystemResetWarning,0827.8,5.00,000.00,028.8,027.4,000.0,037.3,030.5,22.6,0000.0,0003.20,0005.67,0002.23
2023-05-31 21:44:00,SystemResetWarning,0827.5,5.00,000.00,028.8,027.4,000.0,037.3,030.5,22.7,0000.0,0003.23,0005.86,0002.23
2023-05-31 21:45:00,SystemResetWarning,0827.4,5.00,000.00,028.8,027.4,000.0,037.3,030.5,23.0,0000.0,0003.24,0005.93,0002.22
2023-05-31 21:46:00,SystemResetWarning,0827.6,5.00,000.00,028.8,027.4,000.0,037.3,030.5,23.0,0000.0,0003.30,0007.43,0002.24
2023-05-31 21:47:00,SystemResetWarning,0827.6,5.01,000.00,028.8,027.4,000.0,037.3,030.5,23.3,0000.0,0003.29,0007.64,0002.25
2023-05-31 21:48:00,SystemResetWarning,0827.6,5.00,000.00,028.8,027.4,000.0,037.3,030.4,22.8,0000.0,0003.27,0007.60,0002.26
2023-05-31 21:49:00,SystemResetWarning,0827.6,5.01,000.00,028.8,027.4,000.0,037.3,030.5,22.2,0000.0,0003.27,0007.59,0002.26
2023-05-31 21:50:00,SystemResetWarning,0827.6,4.99,000.00,028.8,027.4,000.0,037.3,030.5,21.5,0000.0,0003.27,0007.56,0002.25
2023-05-31 21:51:00,SystemResetWarning,0827.6,4.99,000.00,028.8,027.4,000.0,037.3,030.5,21.3,0000.0,0003.27,0007.55,0002.25
2023-05-31 21:52:00,SystemResetWarning,0827.7,5.00,000.00,028.8,027.4,000.0,037.3,030.4,22.4,0000.0,0003.24,0007.47,0002.23
2023-05-31 21:53:00,SystemResetWarning,0827.7,5.01,000.00,028.8,027.4,000.0,037.3,030.4,22.2,0000.0,0003.22,0007.37,0002.22
2023-05-31 21:54:00,SystemResetWarning,0827.7,5.00,000.00,028.8,027.4,000.0,037.3,030.5,21.3,0000.0,0003.22,0007.32,0002.20
2023-05-31 21:55:00,SystemResetWarning,0827.9,5.00,000.00,028.8,027.3,000.0,037.3,030.5,20.6,0000.0,0003.21,0007.30,0002.20
2023-05-31 21:56:00,SystemResetWarning,0827.8,4.98,000.00,028.8,027.3,000.0,037.3,030.5,21.3,0000.0,0003.22,0007.32,0002.21
2023-05-31 21:57:00,SystemResetWarning,0827.8,5.00,000.00,028.8,027.3,000.0,037.3,030.4,22.5,0000.0,0003.22,0005.98,0002.22
2023-05-31 21:58:00,SystemResetWarning,0827.7,5.01,000.00,028.8,027.3,000.0,037.3,030.4,21.9,0000.0,0003.29,0005.90,0002.22
2023-05-31 21:59:00,SystemResetWarning,0827.7,5.00,000.00,028.8,027.3,000.0,037.3,030.4,20.9,0000.0,0003.35,0006.28,0002.21
